Year,Month,Day,Hour,Minute,Value (Times are PST for temperature in C)
2018,07,16,00,00,19.50
2018,07,16,00,01,19.50
2018,07,16,00,02,19.50
2018,07,16,00,03,19.50
2018,07,16,00,04,19.50
2018,07,16,00,05,19.50
2018,07,16,00,06,19.50
2018,07,16,00,07,19.50
2018,07,16,00,08,19.50
2018,07,16,00,09,19.50
2018,07,16,00,10,19.40
2018,07,16,00,11,19.40
2018,07,16,00,12,19.40
2018,07,16,00,13,19.40
2018,07,16,00,14,19.30
2018,07,16,00,15,19.30
2018,07,16,00,16,19.30
2018,07,16,00,17,19.20
2018,07,16,00,18,19.20
2018,07,16,00,19,19.10
2018,07,16,00,20,19.10
2018,07,16,00,21,19.00
2018,07,16,00,22,19.00
2018,07,16,00,23,18.90
2018,07,16,00,24,18.90
2018,07,16,00,25,18.80
2018,07,16,00,26,18.80
2018,07,16,00,27,18.80
2018,07,16,00,28,18.70
2018,07,16,00,29,18.70
2018,07,16,00,30,18.70
2018,07,16,00,31,18.70
2018,07,16,00,32,18.60
2018,07,16,00,33,18.60
2018,07,16,00,34,18.60
2018,07,16,00,35,18.60
2018,07,16,00,36,18.50
2018,07,16,00,37,18.50
2018,07,16,00,38,18.50
2018,07,16,00,39,18.50
2018,07,16,00,40,18.50
2018,07,16,00,41,18.50
2018,07,16,00,42,18.60
2018,07,16,00,43,18.60
2018,07,16,00,44,18.60
2018,07,16,00,45,18.60
2018,07,16,00,46,18.60
2018,07,16,00,47,18.70
2018,07,16,00,48,18.70
2018,07,16,00,49,18.70
2018,07,16,00,50,18.70
2018,07,16,00,51,18.70
2018,07,16,00,52,18.70
2018,07,16,00,53,18.60
2018,07,16,00,54,18.60
2018,07,16,00,55,18.60
2018,07,16,00,56,18.60
2018,07,16,00,57,18.60
2018,07,16,00,58,18.50
2018,07,16,00,59,18.50
2018,07,16,01,00,18.50
2018,07,16,01,01,18.40
2018,07,16,01,02,18.40
2018,07,16,01,03,18.40
2018,07,16,01,04,18.30
2018,07,16,01,05,18.30
2018,07,16,01,06,18.30
2018,07,16,01,07,18.30
2018,07,16,01,08,18.20
2018,07,16,01,09,18.20
2018,07,16,01,10,18.20
2018,07,16,01,11,18.20
2018,07,16,01,12,18.20
2018,07,16,01,13,18.20
2018,07,16,01,14,18.20
2018,07,16,01,15,18.20
2018,07,16,01,16,18.20
2018,07,16,01,17,18.20
2018,07,16,01,18,18.20
2018,07,16,01,19,18.20
2018,07,16,01,20,18.30
2018,07,16,01,21,18.30
2018,07,16,01,22,18.30
2018,07,16,01,23,18.20
2018,07,16,01,24,18.20
2018,07,16,01,25,18.20
2018,07,16,01,26,18.20
2018,07,16,01,27,18.10
2018,07,16,01,28,18.10
2018,07,16,01,29,18.10
2018,07,16,01,30,18.10
2018,07,16,01,31,18.00
2018,07,16,01,32,18.00
2018,07,16,01,33,17.90
2018,07,16,01,34,17.90
2018,07,16,01,35,17.80
2018,07,16,01,36,17.80
2018,07,16,01,37,17.80
2018,07,16,01,38,17.70
2018,07,16,01,39,17.70
2018,07,16,01,40,17.60
2018,07,16,01,41,17.60
2018,07,16,01,42,17.60
2018,07,16,01,43,17.50
2018,07,16,01,44,17.50
2018,07,16,01,45,17.50
2018,07,16,01,46,17.40
2018,07,16,01,47,17.40
2018,07,16,01,48,17.40
2018,07,16,01,49,17.40
2018,07,16,01,50,17.40
2018,07,16,01,51,17.40
2018,07,16,01,52,17.40
2018,07,16,01,53,17.40
2018,07,16,01,54,17.30
2018,07,16,01,55,17.30
2018,07,16,01,56,17.30
2018,07,16,01,57,17.30
2018,07,16,01,58,17.30
2018,07,16,01,59,17.30
2018,07,16,02,00,17.30
2018,07,16,02,01,17.30
2018,07,16,02,02,17.20
2018,07,16,02,03,17.20
2018,07,16,02,04,17.20
2018,07,16,02,05,17.20
2018,07,16,02,06,17.20
2018,07,16,02,07,17.20
2018,07,16,02,08,17.20
2018,07,16,02,09,17.10
2018,07,16,02,10,17.10
2018,07,16,02,11,17.10
2018,07,16,02,12,17.10
2018,07,16,02,13,17.10
2018,07,16,02,14,17.00
2018,07,16,02,15,17.00
2018,07,16,02,16,17.00
2018,07,16,02,17,17.00
2018,07,16,02,18,17.00
2018,07,16,02,19,17.00
2018,07,16,02,20,16.90
2018,07,16,02,21,16.90
2018,07,16,02,22,16.90
2018,07,16,02,23,16.90
2018,07,16,02,24,16.80
2018,07,16,02,25,16.80
2018,07,16,02,26,16.80
2018,07,16,02,27,16.70
2018,07,16,02,28,16.70
2018,07,16,02,29,16.70
2018,07,16,02,30,16.70
2018,07,16,02,31,16.70
2018,07,16,02,32,16.60
2018,07,16,02,33,16.60
2018,07,16,02,34,16.60
2018,07,16,02,35,16.60
2018,07,16,02,36,16.60
2018,07,16,02,37,16.60
2018,07,16,02,38,16.60
2018,07,16,02,39,16.50
2018,07,16,02,40,16.50
2018,07,16,02,41,16.50
2018,07,16,02,42,16.50
2018,07,16,02,43,16.50
2018,07,16,02,44,16.50
2018,07,16,02,45,16.50
2018,07,16,02,46,16.50
2018,07,16,02,47,16.50
2018,07,16,02,48,16.50
2018,07,16,02,49,16.50
2018,07,16,02,50,16.40
2018,07,16,02,51,16.40
2018,07,16,02,52,16.40
2018,07,16,02,53,16.40
2018,07,16,02,54,16.40
2018,07,16,02,55,16.40
2018,07,16,02,56,16.40
2018,07,16,02,57,16.30
2018,07,16,02,58,16.30
2018,07,16,02,59,16.30
2018,07,16,03,00,16.30
2018,07,16,03,01,16.30
2018,07,16,03,02,16.30
2018,07,16,03,03,16.20
2018,07,16,03,04,16.20
2018,07,16,03,05,16.20
2018,07,16,03,06,16.20
2018,07,16,03,07,16.20
2018,07,16,03,08,16.10
2018,07,16,03,09,16.10
2018,07,16,03,10,16.10
2018,07,16,03,11,16.10
2018,07,16,03,12,16.10
2018,07,16,03,13,16.10
2018,07,16,03,14,16.00
2018,07,16,03,15,16.00
2018,07,16,03,16,16.00
2018,07,16,03,17,15.90
2018,07,16,03,18,15.90
2018,07,16,03,19,15.90
2018,07,16,03,20,15.90
2018,07,16,03,21,15.90
2018,07,16,03,22,15.90
2018,07,16,03,23,15.80
2018,07,16,03,24,15.80
2018,07,16,03,25,15.80
2018,07,16,03,26,15.80
2018,07,16,03,27,15.70
2018,07,16,03,28,15.70
2018,07,16,03,29,15.70
2018,07,16,03,30,15.70
2018,07,16,03,31,15.70
2018,07,16,03,32,15.70
2018,07,16,03,33,15.70
2018,07,16,03,34,15.70
2018,07,16,03,35,15.60
2018,07,16,03,36,15.60
2018,07,16,03,37,15.60
2018,07,16,03,38,15.60
2018,07,16,03,39,15.60
2018,07,16,03,40,15.60
2018,07,16,03,41,15.50
2018,07,16,03,42,15.50
2018,07,16,03,43,15.50
2018,07,16,03,44,15.50
2018,07,16,03,45,15.40
2018,07,16,03,46,15.40
2018,07,16,03,47,15.40
2018,07,16,03,48,15.40
2018,07,16,03,49,15.30
2018,07,16,03,50,15.30
2018,07,16,03,51,15.30
2018,07,16,03,52,15.30
2018,07,16,03,53,15.30
2018,07,16,03,54,15.30
2018,07,16,03,55,15.20
2018,07,16,03,56,15.20
2018,07,16,03,57,15.20
2018,07,16,03,58,15.10
2018,07,16,03,59,15.10
2018,07,16,04,00,15.10
2018,07,16,04,01,15.10
2018,07,16,04,02,15.00
2018,07,16,04,03,15.00
2018,07,16,04,04,15.00
2018,07,16,04,05,14.90
2018,07,16,04,06,14.90
2018,07,16,04,07,14.90
2018,07,16,04,08,14.90
2018,07,16,04,09,14.90
2018,07,16,04,10,14.90
2018,07,16,04,11,14.80
2018,07,16,04,12,14.80
2018,07,16,04,13,14.80
2018,07,16,04,14,14.80
2018,07,16,04,15,14.70
2018,07,16,04,16,14.70
2018,07,16,04,17,14.70
2018,07,16,04,18,14.70
2018,07,16,04,19,14.70
2018,07,16,04,20,14.60
2018,07,16,04,21,14.60
2018,07,16,04,22,14.60
2018,07,16,04,23,14.60
2018,07,16,04,24,14.60
2018,07,16,04,25,14.60
2018,07,16,04,26,14.50
2018,07,16,04,27,14.50
2018,07,16,04,28,14.50
2018,07,16,04,29,14.50
2018,07,16,04,30,14.40
2018,07,16,04,31,14.40
2018,07,16,04,32,14.40
2018,07,16,04,33,14.40
2018,07,16,04,34,14.40
2018,07,16,04,35,14.40
2018,07,16,04,36,14.40
2018,07,16,04,37,14.40
2018,07,16,04,38,14.40
2018,07,16,04,39,14.40
2018,07,16,04,40,14.30
2018,07,16,04,41,14.30
2018,07,16,04,42,14.30
2018,07,16,04,43,14.30
2018,07,16,04,44,14.40
2018,07,16,04,45,14.40
2018,07,16,04,46,14.40
2018,07,16,04,47,14.40
2018,07,16,04,48,14.40
2018,07,16,04,49,14.40
2018,07,16,04,50,14.40
2018,07,16,04,51,14.50
2018,07,16,04,52,14.50
2018,07,16,04,53,14.50
2018,07,16,04,54,14.50
2018,07,16,04,55,14.50
2018,07,16,04,56,14.50
2018,07,16,04,57,14.40
2018,07,16,04,58,14.40
2018,07,16,04,59,14.40
2018,07,16,05,00,14.40
2018,07,16,05,01,14.40
2018,07,16,05,02,14.40
2018,07,16,05,03,14.30
2018,07,16,05,04,14.30
2018,07,16,05,05,14.30
2018,07,16,05,06,14.30
2018,07,16,05,07,14.30
2018,07,16,05,08,14.30
2018,07,16,05,09,14.30
2018,07,16,05,10,14.30
2018,07,16,05,11,14.30
2018,07,16,05,12,14.40
2018,07,16,05,13,14.40
2018,07,16,05,14,14.40
2018,07,16,05,15,14.40
2018,07,16,05,16,14.40
2018,07,16,05,17,14.40
2018,07,16,05,18,14.40
2018,07,16,05,19,14.40
2018,07,16,05,20,14.40
2018,07,16,05,21,14.40
2018,07,16,05,22,14.40
2018,07,16,05,23,14.50
2018,07,16,05,24,14.50
2018,07,16,05,25,14.50
2018,07,16,05,26,14.50
2018,07,16,05,27,14.50
2018,07,16,05,28,14.60
2018,07,16,05,29,14.60
2018,07,16,05,30,14.60
2018,07,16,05,31,14.70
2018,07,16,05,32,14.70
2018,07,16,05,33,14.70
2018,07,16,05,34,14.80
2018,07,16,05,35,14.80
2018,07,16,05,36,14.80
2018,07,16,05,37,14.80
2018,07,16,05,38,14.80
2018,07,16,05,39,14.80
2018,07,16,05,40,14.80
2018,07,16,05,41,14.80
2018,07,16,05,42,14.80
2018,07,16,05,43,14.80
2018,07,16,05,44,14.80
2018,07,16,05,45,14.80
2018,07,16,05,46,14.90
2018,07,16,05,47,14.90
2018,07,16,05,48,14.90
2018,07,16,05,49,14.90
2018,07,16,05,50,14.90
2018,07,16,05,51,14.90
2018,07,16,05,52,14.90
2018,07,16,05,53,14.90
2018,07,16,05,54,14.90
2018,07,16,05,55,15.00
2018,07,16,05,56,15.00
2018,07,16,05,57,15.00
2018,07,16,05,58,15.00
2018,07,16,05,59,15.10
2018,07,16,06,00,15.10
2018,07,16,06,01,15.10
2018,07,16,06,02,15.10
2018,07,16,06,03,15.20
2018,07,16,06,04,15.20
2018,07,16,06,05,15.20
2018,07,16,06,06,15.20
2018,07,16,06,07,15.20
2018,07,16,06,08,15.20
2018,07,16,06,09,15.20
2018,07,16,06,10,15.20
2018,07,16,06,11,15.20
2018,07,16,06,12,15.20
2018,07,16,06,13,15.20
2018,07,16,06,14,15.20
2018,07,16,06,15,15.20
2018,07,16,06,16,15.20
2018,07,16,06,17,15.20
2018,07,16,06,18,15.20
2018,07,16,06,19,15.20
2018,07,16,06,20,15.20
2018,07,16,06,21,15.20
2018,07,16,06,22,15.20
2018,07,16,06,23,15.20
2018,07,16,06,24,15.10
2018,07,16,06,25,15.20
2018,07,16,06,26,15.20
2018,07,16,06,27,15.20
2018,07,16,06,28,15.20
2018,07,16,06,29,15.20
2018,07,16,06,30,15.30
2018,07,16,06,31,15.30
2018,07,16,06,32,15.40
2018,07,16,06,33,15.40
2018,07,16,06,34,15.50
2018,07,16,06,35,15.50
2018,07,16,06,36,15.50
2018,07,16,06,37,15.50
2018,07,16,06,38,15.50
2018,07,16,06,39,15.50
2018,07,16,06,40,15.50
2018,07,16,06,41,15.50
2018,07,16,06,42,15.50
2018,07,16,06,43,15.50
2018,07,16,06,44,15.50
2018,07,16,06,45,15.50
2018,07,16,06,46,15.50
2018,07,16,06,47,15.50
2018,07,16,06,48,15.50
2018,07,16,06,49,15.60
2018,07,16,06,50,15.60
2018,07,16,06,51,15.70
2018,07,16,06,52,15.70
2018,07,16,06,53,15.80
2018,07,16,06,54,15.80
2018,07,16,06,55,15.90
2018,07,16,06,56,16.00
2018,07,16,06,57,16.00
2018,07,16,06,58,16.10
2018,07,16,06,59,16.20
2018,07,16,07,00,16.20
2018,07,16,07,01,16.30
2018,07,16,07,02,16.30
2018,07,16,07,03,16.40
2018,07,16,07,04,16.40
2018,07,16,07,05,16.50
2018,07,16,07,06,16.60
2018,07,16,07,07,16.60
2018,07,16,07,08,16.70
2018,07,16,07,09,16.70
2018,07,16,07,10,16.80
2018,07,16,07,11,16.80
2018,07,16,07,12,16.80
2018,07,16,07,13,16.90
2018,07,16,07,14,17.00
2018,07,16,07,15,17.00
2018,07,16,07,16,17.10
2018,07,16,07,17,17.10
2018,07,16,07,18,17.20
2018,07,16,07,19,17.30
2018,07,16,07,20,17.30
2018,07,16,07,21,17.40
2018,07,16,07,22,17.40
2018,07,16,07,23,17.50
2018,07,16,07,24,17.50
2018,07,16,07,25,17.60
2018,07,16,07,26,17.70
2018,07,16,07,27,17.80
2018,07,16,07,28,17.80
2018,07,16,07,29,17.90
2018,07,16,07,30,17.90
2018,07,16,07,31,18.00
2018,07,16,07,32,18.00
2018,07,16,07,33,18.10
2018,07,16,07,34,18.20
2018,07,16,07,35,18.30
2018,07,16,07,36,18.30
2018,07,16,07,37,18.40
2018,07,16,07,38,18.50
2018,07,16,07,39,18.60
2018,07,16,07,40,18.70
2018,07,16,07,41,18.80
2018,07,16,07,42,18.90
2018,07,16,07,43,19.00
2018,07,16,07,44,19.10
2018,07,16,07,45,19.20
2018,07,16,07,46,19.20
2018,07,16,07,47,19.30
2018,07,16,07,48,19.40
2018,07,16,07,49,19.50
2018,07,16,07,50,19.50
2018,07,16,07,51,19.60
2018,07,16,07,52,19.70
2018,07,16,07,53,19.80
2018,07,16,07,54,19.90
2018,07,16,07,55,20.00
2018,07,16,07,56,20.10
2018,07,16,07,57,20.20
2018,07,16,07,58,20.30
2018,07,16,07,59,20.40
2018,07,16,08,00,20.50
2018,07,16,08,01,20.60
2018,07,16,08,02,20.70
2018,07,16,08,03,20.80
2018,07,16,08,04,20.90
2018,07,16,08,05,20.90
2018,07,16,08,06,21.00
2018,07,16,08,07,21.00
2018,07,16,08,08,21.10
2018,07,16,08,09,21.10
2018,07,16,08,10,21.10
2018,07,16,08,11,21.10
2018,07,16,08,12,21.10
2018,07,16,08,13,21.10
2018,07,16,08,14,21.20
2018,07,16,08,15,21.20
2018,07,16,08,16,21.20
2018,07,16,08,17,21.30
2018,07,16,08,18,21.30
2018,07,16,08,19,21.40
2018,07,16,08,20,21.40
2018,07,16,08,21,21.50
2018,07,16,08,22,21.50
2018,07,16,08,23,21.60
2018,07,16,08,24,21.60
2018,07,16,08,25,21.70
2018,07,16,08,26,21.80
2018,07,16,08,27,21.80
2018,07,16,08,28,21.90
2018,07,16,08,29,22.00
2018,07,16,08,30,22.10
2018,07,16,08,31,22.10
2018,07,16,08,32,22.10
2018,07,16,08,33,22.10
2018,07,16,08,34,22.10
2018,07,16,08,35,22.10
2018,07,16,08,36,22.10
2018,07,16,08,37,22.10
2018,07,16,08,38,22.10
2018,07,16,08,39,22.10
2018,07,16,08,40,22.00
2018,07,16,08,41,22.00
2018,07,16,08,42,22.00
2018,07,16,08,43,22.00
2018,07,16,08,44,22.00
2018,07,16,08,45,22.00
2018,07,16,08,46,22.00
2018,07,16,08,47,22.00
2018,07,16,08,48,22.00
2018,07,16,08,49,22.10
2018,07,16,08,50,22.10
2018,07,16,08,51,22.10
2018,07,16,08,52,22.10
2018,07,16,08,53,22.10
2018,07,16,08,54,22.10
2018,07,16,08,55,22.10
2018,07,16,08,56,22.20
2018,07,16,08,57,22.20
2018,07,16,08,58,22.20
2018,07,16,08,59,22.20
2018,07,16,09,00,22.20
2018,07,16,09,01,22.20
2018,07,16,09,02,22.30
2018,07,16,09,03,22.30
2018,07,16,09,04,22.30
2018,07,16,09,05,22.40
2018,07,16,09,06,22.40
2018,07,16,09,07,22.50
2018,07,16,09,08,22.50
2018,07,16,09,09,22.60
2018,07,16,09,10,22.70
2018,07,16,09,11,22.70
2018,07,16,09,12,22.70
2018,07,16,09,13,22.80
2018,07,16,09,14,22.80
2018,07,16,09,15,22.80
2018,07,16,09,16,22.80
2018,07,16,09,17,22.80
2018,07,16,09,18,22.80
2018,07,16,09,19,22.80
2018,07,16,09,20,22.80
2018,07,16,09,21,22.80
2018,07,16,09,22,22.80
2018,07,16,09,23,22.90
2018,07,16,09,24,22.90
2018,07,16,09,25,22.90
2018,07,16,09,26,22.90
2018,07,16,09,27,22.90
2018,07,16,09,28,22.80
2018,07,16,09,29,22.80
2018,07,16,09,30,22.80
2018,07,16,09,31,22.80
2018,07,16,09,32,22.70
2018,07,16,09,33,22.70
2018,07,16,09,34,22.60
2018,07,16,09,35,22.60
2018,07,16,09,36,22.60
2018,07,16,09,37,22.60
2018,07,16,09,38,22.60
2018,07,16,09,39,22.60
2018,07,16,09,40,22.60
2018,07,16,09,41,22.60
2018,07,16,09,42,22.50
2018,07,16,09,43,22.50
2018,07,16,09,44,22.50
2018,07,16,09,45,22.50
2018,07,16,09,46,22.40
2018,07,16,09,47,22.40
2018,07,16,09,48,22.40
2018,07,16,09,49,22.40
2018,07,16,09,50,22.50
2018,07,16,09,51,22.50
2018,07,16,09,52,22.60
2018,07,16,09,53,22.60
2018,07,16,09,54,22.60
2018,07,16,09,55,22.70
2018,07,16,09,56,22.70
2018,07,16,09,57,22.70
2018,07,16,09,58,22.80
2018,07,16,09,59,22.80
2018,07,16,10,00,22.80
2018,07,16,10,01,22.80
2018,07,16,10,02,22.80
2018,07,16,10,03,22.90
2018,07,16,10,04,22.90
2018,07,16,10,05,22.90
2018,07,16,10,06,23.00
2018,07,16,10,07,23.00
2018,07,16,10,08,23.00
2018,07,16,10,09,23.00
2018,07,16,10,10,23.10
2018,07,16,10,11,23.10
2018,07,16,10,12,23.10
2018,07,16,10,13,23.20
2018,07,16,10,14,23.20
2018,07,16,10,15,23.30
2018,07,16,10,16,23.30
2018,07,16,10,17,23.30
2018,07,16,10,18,23.40
2018,07,16,10,19,23.40
2018,07,16,10,20,23.40
2018,07,16,10,21,23.40
2018,07,16,10,22,23.40
2018,07,16,10,23,23.40
2018,07,16,10,24,23.40
2018,07,16,10,25,23.40
2018,07,16,10,26,23.40
2018,07,16,10,27,23.50
2018,07,16,10,28,23.50
2018,07,16,10,29,23.60
2018,07,16,10,30,23.60
2018,07,16,10,31,23.60
2018,07,16,10,32,23.60
2018,07,16,10,33,23.70
2018,07,16,10,34,23.70
2018,07,16,10,35,23.80
2018,07,16,10,36,23.80
2018,07,16,10,37,23.80
2018,07,16,10,38,23.80
2018,07,16,10,39,23.80
2018,07,16,10,40,23.80
2018,07,16,10,41,23.80
2018,07,16,10,42,23.90
2018,07,16,10,43,23.90
2018,07,16,10,44,24.00
2018,07,16,10,45,24.00
2018,07,16,10,46,24.00
2018,07,16,10,47,24.00
2018,07,16,10,48,24.10
2018,07,16,10,49,24.10
2018,07,16,10,50,24.10
2018,07,16,10,51,24.10
2018,07,16,10,52,24.10
2018,07,16,10,53,24.10
2018,07,16,10,54,24.10
2018,07,16,10,55,24.20
2018,07,16,10,56,24.20
2018,07,16,10,57,24.20
2018,07,16,10,58,24.20
2018,07,16,10,59,24.20
2018,07,16,11,00,24.20
2018,07,16,11,01,24.20
2018,07,16,11,02,24.20
2018,07,16,11,03,24.30
2018,07,16,11,04,24.30
2018,07,16,11,05,24.30
2018,07,16,11,06,24.30
2018,07,16,11,07,24.40
2018,07,16,11,08,24.40
2018,07,16,11,09,24.50
2018,07,16,11,10,24.50
2018,07,16,11,11,24.60
2018,07,16,11,12,24.70
2018,07,16,11,13,24.80
2018,07,16,11,14,24.80
2018,07,16,11,15,24.80
2018,07,16,11,16,24.80
2018,07,16,11,17,24.80
2018,07,16,11,18,24.70
2018,07,16,11,19,24.70
2018,07,16,11,20,24.70
2018,07,16,11,21,24.70
2018,07,16,11,22,24.70
2018,07,16,11,23,24.70
2018,07,16,11,24,24.70
2018,07,16,11,25,24.70
2018,07,16,11,26,24.70
2018,07,16,11,27,24.70
2018,07,16,11,28,24.70
2018,07,16,11,29,24.70
2018,07,16,11,30,24.70
2018,07,16,11,31,24.80
2018,07,16,11,32,24.80
2018,07,16,11,33,24.80
2018,07,16,11,34,24.90
2018,07,16,11,35,24.90
2018,07,16,11,36,24.80
2018,07,16,11,37,24.80
2018,07,16,11,38,24.80
2018,07,16,11,39,24.80
2018,07,16,11,40,24.80
2018,07,16,11,41,24.80
2018,07,16,11,42,24.80
2018,07,16,11,43,24.80
2018,07,16,11,44,24.90
2018,07,16,11,45,24.90
2018,07,16,11,46,24.90
2018,07,16,11,47,25.00
2018,07,16,11,48,25.10
2018,07,16,11,49,25.10
2018,07,16,11,50,25.20
2018,07,16,11,51,25.20
2018,07,16,11,52,25.20
2018,07,16,11,53,25.20
2018,07,16,11,54,25.20
2018,07,16,11,55,25.20
2018,07,16,11,56,25.20
2018,07,16,11,57,25.20
2018,07,16,11,58,25.20
2018,07,16,11,59,25.30
2018,07,16,12,00,25.30
2018,07,16,12,01,25.30
2018,07,16,12,02,25.40
2018,07,16,12,03,25.50
2018,07,16,12,04,25.60
2018,07,16,12,05,25.60
2018,07,16,12,06,25.70
2018,07,16,12,07,25.70
2018,07,16,12,08,25.70
2018,07,16,12,09,25.70
2018,07,16,12,10,25.70
2018,07,16,12,11,25.70
2018,07,16,12,12,25.80
2018,07,16,12,13,25.80
2018,07,16,12,14,25.80
2018,07,16,12,15,25.80
2018,07,16,12,16,25.80
2018,07,16,12,17,25.80
2018,07,16,12,18,25.80
2018,07,16,12,19,25.90
2018,07,16,12,20,25.90
2018,07,16,12,21,25.90
2018,07,16,12,22,26.00
2018,07,16,12,23,26.00
2018,07,16,12,24,26.00
2018,07,16,12,25,25.90
2018,07,16,12,26,25.80
2018,07,16,12,27,25.60
2018,07,16,12,28,25.50
2018,07,16,12,29,25.40
2018,07,16,12,30,25.20
2018,07,16,12,31,25.10
2018,07,16,12,32,25.00
2018,07,16,12,33,24.90
2018,07,16,12,34,24.80
2018,07,16,12,35,24.70
2018,07,16,12,36,24.60
2018,07,16,12,37,24.50
2018,07,16,12,38,24.30
2018,07,16,12,39,24.10
2018,07,16,12,40,23.90
2018,07,16,12,41,23.80
2018,07,16,12,42,23.70
2018,07,16,12,43,23.70
2018,07,16,12,44,23.70
2018,07,16,12,45,23.70
2018,07,16,12,46,23.70
2018,07,16,12,47,23.80
2018,07,16,12,48,23.80
2018,07,16,12,49,23.80
2018,07,16,12,50,23.80
2018,07,16,12,51,23.70
2018,07,16,12,52,23.60
2018,07,16,12,53,23.60
2018,07,16,12,54,23.50
2018,07,16,12,55,23.40
2018,07,16,12,56,23.40
2018,07,16,12,57,23.40
2018,07,16,12,58,23.40
2018,07,16,12,59,23.40
2018,07,16,13,00,23.40
2018,07,16,13,01,23.40
2018,07,16,13,02,23.30
2018,07,16,13,03,23.40
2018,07,16,13,04,23.40
2018,07,16,13,05,23.40
2018,07,16,13,06,23.40
2018,07,16,13,07,23.40
2018,07,16,13,08,23.50
2018,07,16,13,09,23.50
2018,07,16,13,10,23.60
2018,07,16,13,11,23.60
2018,07,16,13,12,23.60
2018,07,16,13,13,23.60
2018,07,16,13,14,23.60
2018,07,16,13,15,23.60
2018,07,16,13,16,23.60
2018,07,16,13,17,23.70
2018,07,16,13,18,23.80
2018,07,16,13,19,23.90
2018,07,16,13,20,24.00
2018,07,16,13,21,24.10
2018,07,16,13,22,24.20
2018,07,16,13,23,24.30
2018,07,16,13,24,24.40
2018,07,16,13,25,24.40
2018,07,16,13,26,24.50
2018,07,16,13,27,24.50
2018,07,16,13,28,24.50
2018,07,16,13,29,24.60
2018,07,16,13,30,24.60
2018,07,16,13,31,24.70
2018,07,16,13,32,24.70
2018,07,16,13,33,24.70
2018,07,16,13,34,24.70
2018,07,16,13,35,24.80
2018,07,16,13,36,24.90
2018,07,16,13,37,25.00
2018,07,16,13,38,25.10
2018,07,16,13,39,25.20
2018,07,16,13,40,25.20
2018,07,16,13,41,25.20
2018,07,16,13,42,25.10
2018,07,16,13,43,25.10
2018,07,16,13,44,25.10
2018,07,16,13,45,25.10
2018,07,16,13,46,25.20
2018,07,16,13,47,25.20
2018,07,16,13,48,25.20
2018,07,16,13,49,25.20
2018,07,16,13,50,25.10
2018,07,16,13,51,25.10
2018,07,16,13,52,25.00
2018,07,16,13,53,24.90
2018,07,16,13,54,24.80
2018,07,16,13,55,24.80
2018,07,16,13,56,24.80
2018,07,16,13,57,24.80
2018,07,16,13,58,24.80
2018,07,16,13,59,24.80
2018,07,16,14,00,24.80
2018,07,16,14,01,24.80
2018,07,16,14,02,24.90
2018,07,16,14,03,24.90
2018,07,16,14,04,25.00
2018,07,16,14,05,25.10
2018,07,16,14,06,25.20
2018,07,16,14,07,25.30
2018,07,16,14,08,25.30
2018,07,16,14,09,25.40
2018,07,16,14,10,25.40
2018,07,16,14,11,25.30
2018,07,16,14,12,25.30
2018,07,16,14,13,25.30
2018,07,16,14,14,25.30
2018,07,16,14,15,25.40
2018,07,16,14,16,25.40
2018,07,16,14,17,25.30
2018,07,16,14,18,25.20
2018,07,16,14,19,25.10
2018,07,16,14,20,25.10
2018,07,16,14,21,25.20
2018,07,16,14,22,25.20
2018,07,16,14,23,25.20
2018,07,16,14,24,25.30
2018,07,16,14,25,25.40
2018,07,16,14,26,25.50
2018,07,16,14,27,25.50
2018,07,16,14,28,25.60
2018,07,16,14,29,25.70
2018,07,16,14,30,25.80
2018,07,16,14,31,25.90
2018,07,16,14,32,25.90
2018,07,16,14,33,25.90
2018,07,16,14,34,25.90
2018,07,16,14,35,26.00
2018,07,16,14,36,26.00
2018,07,16,14,37,26.00
2018,07,16,14,38,26.00
2018,07,16,14,39,26.00
2018,07,16,14,40,26.00
2018,07,16,14,41,26.00
2018,07,16,14,42,26.10
2018,07,16,14,43,26.20
2018,07,16,14,44,26.20
2018,07,16,14,45,26.10
2018,07,16,14,46,26.10
2018,07,16,14,47,26.10
2018,07,16,14,48,26.10
2018,07,16,14,49,26.10
2018,07,16,14,50,26.10
2018,07,16,14,51,26.10
2018,07,16,14,52,26.10
2018,07,16,14,53,26.10
2018,07,16,14,54,26.10
2018,07,16,14,55,26.10
2018,07,16,14,56,26.10
2018,07,16,14,57,26.10
2018,07,16,14,58,26.10
2018,07,16,14,59,26.20
2018,07,16,15,00,26.30
2018,07,16,15,01,26.30
2018,07,16,15,02,26.20
2018,07,16,15,03,26.20
2018,07,16,15,04,26.20
2018,07,16,15,05,26.30
2018,07,16,15,06,26.40
2018,07,16,15,07,26.50
2018,07,16,15,08,26.50
2018,07,16,15,09,26.60
2018,07,16,15,10,26.60
2018,07,16,15,11,26.60
2018,07,16,15,12,26.60
2018,07,16,15,13,26.60
2018,07,16,15,14,26.60
2018,07,16,15,15,26.60
2018,07,16,15,16,26.50
2018,07,16,15,17,26.40
2018,07,16,15,18,26.30
2018,07,16,15,19,26.10
2018,07,16,15,20,26.00
2018,07,16,15,21,25.90
2018,07,16,15,22,25.80
2018,07,16,15,23,25.80
2018,07,16,15,24,25.90
2018,07,16,15,25,25.90
2018,07,16,15,26,25.90
2018,07,16,15,27,25.90
2018,07,16,15,28,25.90
2018,07,16,15,29,26.00
2018,07,16,15,30,26.00
2018,07,16,15,31,26.10
2018,07,16,15,32,26.20
2018,07,16,15,33,26.30
2018,07,16,15,34,26.40
2018,07,16,15,35,26.50
2018,07,16,15,36,26.60
2018,07,16,15,37,26.60
2018,07,16,15,38,26.60
2018,07,16,15,39,26.60
2018,07,16,15,40,26.60
2018,07,16,15,41,26.60
2018,07,16,15,42,26.60
2018,07,16,15,43,26.60
2018,07,16,15,44,26.60
2018,07,16,15,45,26.60
2018,07,16,15,46,26.60
2018,07,16,15,47,26.60
2018,07,16,15,48,26.60
2018,07,16,15,49,26.70
2018,07,16,15,50,26.70
2018,07,16,15,51,26.60
2018,07,16,15,52,26.50
2018,07,16,15,53,26.40
2018,07,16,15,54,26.40
2018,07,16,15,55,26.50
2018,07,16,15,56,26.60
2018,07,16,15,57,26.70
2018,07,16,15,58,26.80
2018,07,16,15,59,26.90
2018,07,16,16,00,27.00
2018,07,16,16,01,27.00
2018,07,16,16,02,27.10
2018,07,16,16,03,27.10
2018,07,16,16,04,27.00
2018,07,16,16,05,27.00
2018,07,16,16,06,26.90
2018,07,16,16,07,26.90
2018,07,16,16,08,26.80
2018,07,16,16,09,26.80
2018,07,16,16,10,26.80
2018,07,16,16,11,26.80
2018,07,16,16,12,26.80
2018,07,16,16,13,26.80
2018,07,16,16,14,26.80
2018,07,16,16,15,26.70
2018,07,16,16,16,26.70
2018,07,16,16,17,26.60
2018,07,16,16,18,26.60
2018,07,16,16,19,26.60
2018,07,16,16,20,26.60
2018,07,16,16,21,26.50
2018,07,16,16,22,26.40
2018,07,16,16,23,26.40
2018,07,16,16,24,26.40
2018,07,16,16,25,26.30
2018,07,16,16,26,26.30
2018,07,16,16,27,26.30
2018,07,16,16,28,26.30
2018,07,16,16,29,26.20
2018,07,16,16,30,26.20
2018,07,16,16,31,26.20
2018,07,16,16,32,26.10
2018,07,16,16,33,26.00
2018,07,16,16,34,25.90
2018,07,16,16,35,25.90
2018,07,16,16,36,25.90
2018,07,16,16,37,25.90
2018,07,16,16,38,25.90
2018,07,16,16,39,25.90
2018,07,16,16,40,25.90
2018,07,16,16,41,25.90
2018,07,16,16,42,25.90
2018,07,16,16,43,25.90
2018,07,16,16,44,25.90
2018,07,16,16,45,26.00
2018,07,16,16,46,26.00
2018,07,16,16,47,26.10
2018,07,16,16,48,26.10
2018,07,16,16,49,26.20
2018,07,16,16,50,26.20
2018,07,16,16,51,26.20
2018,07,16,16,52,26.30
2018,07,16,16,53,26.30
2018,07,16,16,54,26.30
2018,07,16,16,55,26.30
2018,07,16,16,56,26.30
2018,07,16,16,57,26.20
2018,07,16,16,58,26.20
2018,07,16,16,59,26.20
2018,07,16,17,00,26.30
2018,07,16,17,01,26.30
2018,07,16,17,02,26.30
2018,07,16,17,03,26.40
2018,07,16,17,04,26.40
2018,07,16,17,05,26.50
2018,07,16,17,06,26.60
2018,07,16,17,07,26.60
2018,07,16,17,08,26.70
2018,07,16,17,09,26.80
2018,07,16,17,10,26.80
2018,07,16,17,11,26.80
2018,07,16,17,12,26.80
2018,07,16,17,13,26.80
2018,07,16,17,14,26.80
2018,07,16,17,15,26.80
2018,07,16,17,16,26.80
2018,07,16,17,17,26.80
2018,07,16,17,18,26.80
2018,07,16,17,19,26.70